When you browse on this site, cookies collect data to enhance your experience and personalize the content and advertising you see.
Visit our Privacy Policy to learn more. By continuing to use the site, you agree to this use of cookies and data.
  • In Sweden
  • List of Countries
  • For 7 days
  • Water Temperature
  • Weather Map
  • Weather Widgets
  • user-avatar
    Login

    Hourly Weather South Holland

    Today, 13 December, Friday

    Time Temperature Precipitation Wind Pressure Humidity
    00:00 0°C° 0 mm 5 mps 746 mmHg 73%
    01:00 -1°C° 0 mm 5 mps 746 mmHg 75%
    02:00 -1°C° 0 mm 4 mps 745 mmHg 77%
    03:00 -1°C° 0 mm 4 mps 745 mmHg 79%
    04:00 -1°C° 0 mm 4 mps 744 mmHg 81%
    05:00 0°C° 0 mm 3 mps 744 mmHg 82%
    06:00 0°C° 0 mm 3 mps 744 mmHg 83%
    07:00 0°C° 0 mm 3 mps 744 mmHg 82%
    08:00 0°C° 0 mm 3 mps 744 mmHg 81%
    09:00 0°C° 0 mm 3 mps 744 mmHg 81%
    10:00 +1°C° 0 mm 3 mps 743 mmHg 78%
    11:00 +2°C° 0 mm 3 mps 743 mmHg 75%
    12:00 +3°C° 0 mm 3 mps 742 mmHg 72%
    13:00 +3°C° 0 mm 3 mps 742 mmHg 73%
    14:00 +4°C° 0 mm 2 mps 741 mmHg 74%
    15:00 +4°C° 0 mm 2 mps 740 mmHg 75%
    16:00 +3°C° 0 mm 2 mps 740 mmHg 78%
    17:00 +4°C° 0 mm 1 mps 740 mmHg 81%
    18:00 +3°C° 0 mm 1 mps 740 mmHg 83%
    19:00 +3°C° 0 mm 1 mps 740 mmHg 85%
    20:00 +2°C° 0 mm 2 mps 739 mmHg 86%
    21:00 +1°C° 0 mm 2 mps 739 mmHg 87%
    22:00 +2°C° 0 mm 1 mps 738 mmHg 88%
    23:00 +2°C° 0 mm 1 mps 738 mmHg 89%

    Tomorrow, 14 December, Saturday

    Time Temperature Precipitation Wind Pressure Humidity
    00:00 +2°C° 0 mm 1 mps 738 mmHg 90%
    01:00 +2°C° 0 mm 1 mps 737 mmHg 90%
    02:00 +1°C° 0 mm 1 mps 736 mmHg 90%
    03:00 +1°C° 0 mm 1 mps 735 mmHg 90%
    04:00 +1°C° 0 mm 1 mps 735 mmHg 91%
    05:00 +2°C° 0 mm 1 mps 735 mmHg 91%
    06:00 +1°C° 0 mm 2 mps 735 mmHg 92%
    07:00 +1°C° 0 mm 2 mps 736 mmHg 91%
    08:00 +1°C° 0 mm 2 mps 736 mmHg 89%
    09:00 +2°C° 0 mm 2 mps 736 mmHg 88%
    10:00 +2°C° 0 mm 2 mps 736 mmHg 89%
    11:00 +1°C° 0 mm 3 mps 736 mmHg 90%
    12:00 +1°C° 0 mm 3 mps 736 mmHg 90%
    13:00 +1°C° 0 mm 3 mps 736 mmHg 91%
    14:00 0°C° 0 mm 4 mps 736 mmHg 91%
    15:00 -1°C° 0 mm 4 mps 737 mmHg 92%
    16:00 -1°C° 0 mm 4 mps 737 mmHg 86%
    17:00 -2°C° 0 mm 4 mps 738 mmHg 80%
    18:00 -4°C° 0 mm 5 mps 739 mmHg 74%
    19:00 -5°C° 0 mm 5 mps 739 mmHg 71%
    20:00 -6°C° 0 mm 5 mps 740 mmHg 68%
    21:00 -6°C° 0 mm 5 mps 740 mmHg 65%
    22:00 -7°C° 0 mm 5 mps 741 mmHg 64%
    23:00 -7°C° 0 mm 5 mps 741 mmHg 64%

    Day after tomorrow, 15 December, Sunday

    Time Temperature Precipitation Wind Pressure Humidity
    00:00 -8°C° 0 mm 5 mps 742 mmHg 64%
    01:00 -8°C° 0 mm 5 mps 742 mmHg 63%
    02:00 -8°C° 0 mm 4 mps 742 mmHg 63%
    03:00 -9°C° 0 mm 4 mps 743 mmHg 62%
    04:00 -9°C° 0 mm 4 mps 743 mmHg 62%
    05:00 -9°C° 0 mm 4 mps 744 mmHg 62%
    06:00 -8°C° 0 mm 3 mps 744 mmHg 61%
    07:00 -8°C° 0 mm 3 mps 745 mmHg 60%
    08:00 -8°C° 0 mm 3 mps 746 mmHg 59%
    09:00 -8°C° 0 mm 3 mps 747 mmHg 58%
    10:00 -6°C° 0 mm 2 mps 747 mmHg 55%
    11:00 -5°C° 0 mm 2 mps 747 mmHg 52%
    12:00 -5°C° 0 mm 2 mps 747 mmHg 48%
    13:00 -2°C° 0 mm 1 mps 747 mmHg 46%
    14:00 -2°C° 0 mm 1 mps 747 mmHg 44%
    15:00 -2°C° 0 mm 1 mps 747 mmHg 43%
    16:00 -2°C° 0 mm 1 mps 747 mmHg 45%
    17:00 -2°C° 0 mm 1 mps 747 mmHg 47%
    18:00 -2°C° 0 mm 1 mps 747 mmHg 50%
    19:00 -4°C° 0 mm 2 mps 747 mmHg 52%
    20:00 -4°C° 0 mm 2 mps 747 mmHg 54%
    21:00 -4°C° 0 mm 2 mps 747 mmHg 57%
    22:00 -4°C° 0 mm 2 mps 747 mmHg 60%
    23:00 -4°C° 0 mm 2 mps 747 mmHg 64%

    16 December, Monday

    Time Temperature Precipitation Wind Pressure Humidity
    00:00 -3°C° 0 mm 2 mps 746 mmHg 68%
    01:00 -4°C° 0.1 mm 2 mps 746 mmHg 75%
    02:00 -5°C° 0.1 mm 3 mps 745 mmHg 82%
    03:00 -5°C° 0.1 mm 3 mps 745 mmHg 89%
    04:00 -5°C° 0.3 mm 3 mps 744 mmHg 91%
    05:00 -4°C° 0.3 mm 3 mps 744 mmHg 92%
    06:00 -4°C° 0.3 mm 4 mps 744 mmHg 93%
    07:00 -4°C° 0.6 mm 4 mps 743 mmHg 94%
    08:00 -5°C° 0.6 mm 5 mps 742 mmHg 94%
    09:00 -5°C° 0.6 mm 5 mps 741 mmHg 95%
    10:00 -4°C° 2 mm 5 mps 740 mmHg 95%
    11:00 -4°C° 2 mm 5 mps 739 mmHg 96%
    12:00 -3°C° 2 mm 4 mps 738 mmHg 97%
    13:00 -4°C° 1.7 mm 5 mps 737 mmHg 97%
    14:00 -4°C° 1.7 mm 5 mps 737 mmHg 97%
    15:00 -2°C° 1.7 mm 5 mps 736 mmHg 97%
    16:00 -4°C° 0.8 mm 5 mps 736 mmHg 97%
    17:00 -4°C° 0.8 mm 5 mps 737 mmHg 97%
    18:00 -4°C° 0.8 mm 6 mps 738 mmHg 96%
    19:00 -5°C° 0.3 mm 6 mps 739 mmHg 95%
    20:00 -6°C° 0.3 mm 6 mps 740 mmHg 93%
    21:00 -8°C° 0.3 mm 7 mps 740 mmHg 91%
    22:00 -9°C° 0 mm 6 mps 741 mmHg 91%
    23:00 -8°C° 0 mm 5 mps 742 mmHg 92%

    17 December, Tuesday

    Time Temperature Precipitation Wind Pressure Humidity
    00:00 -9°C° 0 mm 4 mps 742 mmHg 92%
    01:00 -10°C° 0 mm 4 mps 743 mmHg 92%
    02:00 -11°C° 0 mm 4 mps 744 mmHg 92%
    03:00 -12°C° 0 mm 4 mps 745 mmHg 92%
    04:00 -14°C° 0 mm 4 mps 745 mmHg 93%
    05:00 -15°C° 0 mm 4 mps 745 mmHg 93%
    06:00 -15°C° 0 mm 4 mps 745 mmHg 93%
    07:00 -15°C° 0 mm 4 mps 745 mmHg 93%
    08:00 -15°C° 0 mm 4 mps 745 mmHg 92%
    09:00 -15°C° 0 mm 5 mps 745 mmHg 92%
    10:00 -14°C° 0.1 mm 5 mps 745 mmHg 91%
    11:00 -13°C° 0.1 mm 5 mps 745 mmHg 90%
    12:00 -12°C° 0.1 mm 6 mps 744 mmHg 90%
    13:00 -14°C° 0.1 mm 6 mps 745 mmHg 86%
    14:00 -14°C° 0.1 mm 7 mps 745 mmHg 83%
    15:00 -16°C° 0.1 mm 8 mps 746 mmHg 80%
    16:00 -18°C° 0 mm 8 mps 747 mmHg 82%
    17:00 -21°C° 0 mm 8 mps 748 mmHg 84%
    18:00 -23°C° 0 mm 7 mps 749 mmHg 86%
    19:00 -24°C° 0 mm 7 mps 749 mmHg 87%
    20:00 -24°C° 0 mm 7 mps 750 mmHg 88%
    21:00 -24°C° 0 mm 6 mps 750 mmHg 89%
    22:00 -26°C° 0 mm 6 mps 751 mmHg 90%
    23:00 -26°C° 0 mm 6 mps 751 mmHg 90%

    18 December, Wednesday

    Time Temperature Precipitation Wind Pressure Humidity
    00:00 -26°C° 0 mm 5 mps 752 mmHg 91%
    01:00 -26°C° 0 mm 5 mps 752 mmHg 91%
    02:00 -27°C° 0 mm 5 mps 753 mmHg 92%
    03:00 -27°C° 0 mm 5 mps 753 mmHg 92%
    04:00 -28°C° 0 mm 5 mps 754 mmHg 93%
    05:00 -27°C° 0 mm 4 mps 754 mmHg 93%
    06:00 -27°C° 0 mm 4 mps 754 mmHg 93%
    07:00 -27°C° 0 mm 4 mps 755 mmHg 93%
    08:00 -27°C° 0 mm 4 mps 756 mmHg 93%
    09:00 -26°C° 0 mm 4 mps 756 mmHg 93%
    10:00 -25°C° 0 mm 4 mps 756 mmHg 92%
    11:00 -24°C° 0 mm 4 mps 756 mmHg 92%
    12:00 -23°C° 0 mm 4 mps 756 mmHg 91%
    13:00 -23°C° 0 mm 4 mps 755 mmHg 90%
    14:00 -23°C° 0 mm 4 mps 755 mmHg 90%
    15:00 -22°C° 0 mm 4 mps 755 mmHg 89%
    16:00 -22°C° 0 mm 4 mps 754 mmHg 88%
    17:00 -22°C° 0 mm 4 mps 754 mmHg 87%
    18:00 -23°C° 0 mm 4 mps 754 mmHg 86%
    19:00 -22°C° 0 mm 5 mps 753 mmHg 86%
    20:00 -21°C° 0 mm 5 mps 753 mmHg 86%
    21:00 -21°C° 0 mm 6 mps 753 mmHg 85%
    22:00 -20°C° 0 mm 6 mps 752 mmHg 85%
    23:00 -18°C° 0 mm 6 mps 751 mmHg 84%
    Show more